| time (UTC) | temp F | wind direction | speed knots | gust knots | rain 1hr in | rain 24hr in | rain mn in | humidity % | barometer mb |
| 20260507041311 | 81 | 265 | 0.0 | 0.0 | 0.00 | 0.00 | 0.00 | 100 | 1014.6 |
| 20260507040811 | 81 | 265 | 0.0 | 0.0 | 0.00 | 0.00 | 0.00 | 100 | 1014.6 |
| 20260507040311 | 81 | 265 | 0.0 | 0.0 | 0.00 | 0.00 | 0.00 | 100 | 1014.6 |
| 20260507035811 | 81 | 265 | 0.0 | 0.0 | 0.00 | 0.00 | 0.00 | 100 | 1014.4 |
| 20260507035311 | 81 | 265 | 0.0 | 0.0 | 0.00 | 0.00 | 0.00 | 100 | 1014.5 |
| 20260507035030 | 81 | 265 | 0.0 | 0.0 | 0.00 | 0.00 | 0.00 | 100 | 1014.5 |
| 20260507034811 | 81 | 265 | 0.0 | 0.0 | 0.00 | 0.00 | 0.00 | 100 | 1014.5 |
| 20260507034311 | 81 | 265 | 0.0 | 0.0 | 0.00 | 0.00 | 0.00 | 100 | 1014.4 |
| 20260507033811 | 81 | 265 | 0.0 | 0.0 | 0.00 | 0.00 | 0.00 | 100 | 1014.3 |
| 20260507033311 | 81 | 265 | 0.0 | 0.0 | 0.00 | 0.00 | 0.00 | 100 | 1014.3 |
| 20260507032811 | 81 | 265 | 0.0 | 0.0 | 0.00 | 0.00 | 0.00 | 100 | 1014.5 |
| 20260507032312 | 82 | 265 | 0.0 | 0.0 | 0.00 | 0.00 | 0.00 | 100 | 1014.4 |
| 20260507031811 | 82 | 265 | 0.0 | 0.0 | 0.00 | 0.00 | 0.00 | 100 | 1014.4 |
| 20260507031311 | 82 | 265 | 0.0 | 0.0 | 0.00 | 0.00 | 0.00 | 100 | 1014.3 |
| 20260507030811 | 82 | 265 | 0.0 | 0.0 | 0.00 | 0.00 | 0.00 | 100 | 1014.2 |
| 20260507030312 | 82 | 265 | 0.0 | 0.0 | 0.00 | 0.00 | 0.00 | 100 | 1014.1 |
| 20260507025811 | 82 | 265 | 0.0 | 0.0 | 0.00 | 0.00 | 0.00 | 100 | 1014.2 |
| 20260507025312 | 82 | 265 | 0.0 | 0.0 | 0.00 | 0.00 | 0.00 | 100 | 1014.1 |
| 20260507024812 | 82 | 265 | 0.0 | 0.0 | 0.00 | 0.00 | 0.00 | 100 | 1014.1 |
| 20260507024312 | 82 | 265 | 0.0 | 0.0 | 0.00 | 0.00 | 0.00 | 100 | 1014.1 |
| 20260507023812 | 82 | 265 | 0.0 | 0.0 | 0.00 | 0.00 | 0.00 | 100 | 1014.2 |
| 20260507023312 | 82 | 265 | 0.0 | 0.0 | 0.00 | 0.00 | 0.00 | 100 | 1014.3 |
| 20260507022812 | 82 | 265 | 0.0 | 0.0 | 0.00 | 0.00 | 0.00 | 100 | 1014.1 |
| 20260507022312 | 82 | 265 | 0.0 | 0.0 | 0.00 | 0.00 | 0.00 | 100 | 1014.1 |
| 20260507022130 | 83 | 265 | 0.0 | 0.0 | 0.00 | 0.00 | 0.00 | 100 | 1014.1 |
| 20260507021812 | 83 | 265 | 0.0 | 0.0 | 0.00 | 0.00 | 0.00 | 100 | 1014.0 |
| 20260507021312 | 82 | 265 | 0.0 | 0.0 | 0.00 | 0.00 | 0.00 | 100 | 1014.0 |
| 20260507020812 | 83 | 265 | 0.0 | 0.0 | 0.00 | 0.00 | 0.00 | 100 | 1014.1 |
| 20260507020312 | 83 | 265 | 0.0 | 0.0 | 0.00 | 0.00 | 0.00 | 100 | 1014.0 |
| 20260507015914 | 83 | 265 | 0.0 | 0.0 | 0.00 | 0.00 | 0.00 | 100 | 1014.0 |
| 20260507015812 | 83 | 265 | 0.0 | 0.0 | 0.00 | 0.00 | 0.00 | 100 | 1014.1 |
| 20260507015312 | 83 | 265 | 0.0 | 0.0 | 0.00 | 0.00 | 0.00 | 100 | 1014.0 |
| 20260507014812 | 83 | 265 | 0.0 | 0.0 | 0.00 | 0.00 | 0.00 | 100 | 1014.0 |
| 20260507014312 | 83 | 265 | 0.0 | 0.0 | 0.00 | 0.00 | 0.00 | 100 | 1014.1 |
| 20260507013812 | 83 | 265 | 0.0 | 0.0 | 0.00 | 0.00 | 0.00 | 100 | 1014.0 |
| 20260507013312 | 83 | 265 | 0.0 | 0.0 | 0.00 | 0.00 | 0.00 | 100 | 1014.0 |
| 20260507012812 | 83 | 265 | 0.0 | 0.0 | 0.00 | 0.00 | 0.00 | 100 | 1013.9 |
| 20260507012312 | 83 | 265 | 0.0 | 0.0 | 0.00 | 0.00 | 0.00 | 100 | 1013.9 |
| 20260507011812 | 83 | 265 | 0.0 | 4.3 | 0.00 | 0.00 | 0.00 | 100 | 1014.1 |
| 20260507011312 | 83 | 7 | 0.0 | 3.5 | 0.00 | 0.00 | 0.00 | 100 | 1014.1 |
| 20260507010812 | 83 | 300 | 0.0 | 0.9 | 0.00 | 0.00 | 0.00 | 100 | 1013.5 |
| 20260507010312 | 83 | 313 | 0.0 | 5.2 | 0.00 | 0.00 | 0.00 | 100 | 1011.6 |
| 20260507005812 | 83 | 305 | 0.0 | 0.0 | 0.00 | 0.00 | 0.00 | 100 | 1011.7 |
| 20260507005312 | 83 | 305 | 0.0 | 0.9 | 0.00 | 0.00 | 0.00 | 100 | 1011.9 |
| 20260507004812 | 83 | 15 | 0.0 | 3.5 | 0.00 | 0.00 | 0.00 | 100 | 1011.2 |
| 20260507004312 | 83 | 237 | 0.0 | 2.6 | 0.00 | 0.00 | 0.00 | 100 | 1011.3 |
| 20260507003812 | 83 | 295 | 2.6 | 4.3 | 0.00 | 0.00 | 0.00 | 100 | 1011.1 |
| 20260507003312 | 83 | 347 | 0.0 | 4.3 | 0.00 | 0.00 | 0.00 | 100 | 1012.4 |
| 20260507002812 | 83 | 357 | 1.7 | 4.3 | 0.00 | 0.00 | 0.00 | 100 | 1013.5 |
| 20260507002312 | 83 | 326 | 0.0 | 4.3 | 0.00 | 0.00 | 0.00 | 100 | 1013.5 |
| 20260507001812 | 83 | 312 | 0.9 | 3.5 | 0.00 | 0.00 | 0.00 | 100 | 1013.8 |
| 20260507001312 | 83 | 274 | 0.0 | 6.1 | 0.00 | 0.00 | 0.00 | 100 | 1013.8 |
| 20260507000812 | 84 | 305 | 0.0 | 3.5 | 0.00 | 0.00 | 0.00 | 100 | 1013.7 |
| 20260507000314 | 84 | 309 | 0.0 | 4.3 | 0.00 | 0.00 | 0.00 | 100 | 1013.6 |
| 20260506235812 | 84 | 4 | 2.6 | 4.3 | 0.00 | 0.00 | 0.00 | 100 | 1013.5 |
| 20260506235312 | 84 | 350 | 0.0 | 5.2 | 0.00 | 0.00 | 0.00 | 100 | 1013.7 |
| 20260506234812 | 84 | 350 | 3.5 | 5.2 | 0.00 | 0.00 | 0.00 | 100 | 1013.6 |
| 20260506234312 | 84 | 330 | 2.6 | 5.2 | 0.00 | 0.00 | 0.00 | 100 | 1013.4 |
| 20260506233812 | 84 | 258 | 0.0 | 3.5 | 0.00 | 0.00 | 0.00 | 100 | 1013.8 |
| 20260506233312 | 84 | 315 | 1.7 | 5.2 | 0.00 | 0.00 | 0.00 | 100 | 1013.7 |
| 20260506232812 | 85 | 344 | 3.5 | 7.0 | 0.00 | 0.00 | 0.00 | 100 | 1013.8 |
| 20260506232312 | 85 | 316 | 3.5 | 6.1 | 0.00 | 0.00 | 0.00 | 100 | 1013.7 |
| 20260506231812 | 85 | 274 | 4.3 | 4.3 | 0.00 | 0.00 | 0.00 | 100 | 1013.7 |
| 20260506231312 | 85 | 28 | 0.9 | 6.1 | 0.00 | 0.00 | 0.00 | 100 | 1013.8 |
| 20260506230812 | 86 | 277 | 1.7 | 7.0 | 0.00 | 0.00 | 0.00 | 100 | 1013.7 |
| 20260506230312 | 86 | 331 | 7.0 | 7.0 | 0.00 | 0.00 | 0.00 | 100 | 1013.7 |
| 20260506225812 | 86 | 296 | 1.7 | 3.5 | 0.00 | 0.00 | 0.00 | 100 | 1013.6 |
| 20260506225312 | 86 | 225 | 0.0 | 6.1 | 0.00 | 0.00 | 0.00 | 100 | 1013.6 |
| 20260506224812 | 86 | 355 | 1.7 | 7.8 | 0.00 | 0.00 | 0.00 | 100 | 1013.6 |
| 20260506224312 | 86 | 98 | 0.9 | 3.5 | 0.00 | 0.00 | 0.00 | 100 | 1013.6 |
| 20260506223812 | 86 | 352 | 1.7 | 7.0 | 0.00 | 0.00 | 0.00 | 100 | 1013.6 |
| 20260506223312 | 87 | 281 | 5.2 | 7.8 | 0.00 | 0.00 | 0.00 | 100 | 1013.4 |
| 20260506222812 | 87 | 299 | 0.9 | 4.3 | 0.00 | 0.00 | 0.00 | 100 | 1013.5 |
| 20260506222312 | 87 | 282 | 0.9 | 7.0 | 0.00 | 0.00 | 0.00 | 100 | 1013.3 |
| 20260506221812 | 87 | 288 | 0.0 | 5.2 | 0.00 | 0.00 | 0.00 | 100 | 1013.6 |
| 20260506221312 | 87 | 264 | 3.5 | 6.1 | 0.00 | 0.00 | 0.00 | 100 | 1013.7 |
| 20260506220812 | 87 | 300 | 2.6 | 5.2 | 0.00 | 0.00 | 0.00 | 100 | 1013.8 |
| 20260506220312 | 87 | 326 | 2.6 | 7.8 | 0.00 | 0.00 | 0.00 | 100 | 1013.7 |
| 20260506215812 | 87 | 274 | 1.7 | 7.0 | 0.00 | 0.00 | 0.00 | 100 | 1013.8 |
| 20260506215312 | 87 | 326 | 4.3 | 7.0 | 0.00 | 0.00 | 0.00 | 100 | 1013.8 |
| 20260506214812 | 87 | 275 | 0.9 | 7.0 | 0.00 | 0.00 | 0.00 | 100 | 1013.8 |
| 20260506214312 | 87 | 291 | 5.2 | 7.8 | 0.00 | 0.00 | 0.00 | 100 | 1013.8 |
| 20260506213812 | 87 | 292 | 2.6 | 7.0 | 0.00 | 0.00 | 0.00 | 100 | 1013.8 |
| 20260506213312 | 87 | 307 | 4.3 | 7.0 | 0.00 | 0.00 | 0.00 | 100 | 1013.8 |
| 20260506212812 | 87 | 354 | 1.7 | 7.0 | 0.00 | 0.00 | 0.00 | 100 | 1013.9 |
| 20260506212312 | 87 | 340 | 4.3 | 7.8 | 0.00 | 0.00 | 0.00 | 100 | 1013.9 |
| 20260506211812 | 87 | 337 | 4.3 | 7.8 | 0.00 | 0.00 | 0.00 | 100 | 1013.9 |
| 20260506211312 | 87 | 1 | 2.6 | 9.6 | 0.00 | 0.00 | 0.00 | 100 | 1013.9 |
| 20260506210812 | 88 | 230 | 0.9 | 7.0 | 0.00 | 0.00 | 0.00 | 100 | 1013.8 |
| 20260506210312 | 88 | 15 | 2.6 | 7.0 | 0.00 | 0.00 | 0.00 | 100 | 1013.8 |
| 20260506205812 | 88 | 320 | 1.7 | 6.1 | 0.00 | 0.00 | 0.00 | 100 | 1013.7 |
| 20260506205312 | 88 | 300 | 1.7 | 7.0 | 0.00 | 0.00 | 0.00 | 100 | 1013.7 |
| 20260506204812 | 88 | 305 | 4.3 | 5.2 | 0.00 | 0.00 | 0.00 | 100 | 1013.7 |
| 20260506204312 | 89 | 250 | 2.6 | 8.7 | 0.00 | 0.00 | 0.00 | 100 | 1013.7 |
| 20260506203812 | 89 | 123 | 1.7 | 7.0 | 0.00 | 0.00 | 0.00 | 100 | 1013.7 |
| 20260506203312 | 89 | 310 | 2.6 | 6.1 | 0.00 | 0.00 | 0.00 | 100 | 1013.6 |
| 20260506202812 | 89 | 279 | 0.9 | 4.3 | 0.00 | 0.00 | 0.00 | 100 | 1013.6 |
| 20260506202312 | 89 | 300 | 0.9 | 5.2 | 0.00 | 0.00 | 0.00 | 100 | 1013.7 |
| 20260506201812 | 89 | 272 | 0.0 | 5.2 | 0.00 | 0.00 | 0.00 | 100 | 1013.7 |
| 20260506201312 | 89 | 319 | 1.7 | 4.3 | 0.00 | 0.00 | 0.00 | 100 | 1013.8 |
| 20260506200812 | 89 | 312 | 0.0 | 6.1 | 0.00 | 0.00 | 0.00 | 100 | 1013.8 |
| 20260506200312 | 89 | 213 | 2.6 | 7.8 | 0.00 | 0.00 | 0.00 | 100 | 1013.8 |
| 20260506195812 | 89 | 181 | 0.0 | 7.0 | 0.00 | 0.00 | 0.00 | 100 | 1013.9 |
| 20260506195312 | 89 | 203 | 2.6 | 8.7 | 0.00 | 0.00 | 0.00 | 100 | 1013.8 |
| 20260506194812 | 89 | 175 | 1.7 | 5.2 | 0.00 | 0.00 | 0.00 | 100 | 1013.8 |
| 20260506194312 | 90 | 310 | 1.7 | 7.0 | 0.00 | 0.00 | 0.00 | 100 | 1013.8 |
| 20260506193812 | 90 | 292 | 0.9 | 5.2 | 0.00 | 0.00 | 0.00 | 100 | 1013.9 |
| 20260506193312 | 90 | 312 | 1.7 | 7.8 | 0.00 | 0.00 | 0.00 | 100 | 1013.8 |
| 20260506192812 | 90 | 272 | 0.9 | 7.8 | 0.00 | 0.00 | 0.00 | 100 | 1013.9 |
| 20260506192312 | 90 | 229 | 0.0 | 7.0 | 0.00 | 0.00 | 0.00 | 100 | 1013.8 |
| 20260506191812 | 90 | 210 | 0.0 | 7.8 | 0.00 | 0.00 | 0.00 | 100 | 1013.7 |
| 20260506191312 | 89 | 230 | 4.3 | 9.6 | 0.00 | 0.00 | 0.00 | 100 | 1014.0 |
| 20260506190812 | 89 | 194 | 3.5 | 4.3 | 0.00 | 0.00 | 0.00 | 100 | 1014.0 |
| 20260506190312 | 89 | 309 | 0.0 | 7.8 | 0.00 | 0.00 | 0.00 | 100 | 1014.1 |
| 20260506185812 | 89 | 302 | 0.9 | 8.7 | 0.00 | 0.00 | 0.00 | 100 | 1014.2 |
| 20260506185312 | 89 | 274 | 3.5 | 7.8 | 0.00 | 0.00 | 0.00 | 100 | 1014.4 |
| 20260506184812 | 90 | 281 | 2.6 | 7.8 | 0.00 | 0.00 | 0.00 | 100 | 1014.4 |
| 20260506184312 | 90 | 208 | 0.0 | 10.4 | 0.00 | 0.00 | 0.00 | 100 | 1014.5 |
| 20260506183812 | 90 | 300 | 2.6 | 7.8 | 0.00 | 0.00 | 0.00 | 100 | 1014.6 |
| 20260506183312 | 90 | 109 | 0.0 | 4.3 | 0.00 | 0.00 | 0.00 | 100 | 1014.6 |
| 20260506182812 | 90 | 253 | 1.7 | 6.1 | 0.00 | 0.00 | 0.00 | 100 | 1014.6 |
| 20260506182312 | 90 | 241 | 1.7 | 7.0 | 0.00 | 0.00 | 0.00 | 100 | 1014.6 |
| 20260506181812 | 90 | 195 | 1.7 | 7.0 | 0.00 | 0.00 | 0.00 | 100 | 1014.6 |
| 20260506181312 | 90 | 258 | 1.7 | 7.0 | 0.00 | 0.00 | 0.00 | 100 | 1014.6 |
| 20260506180812 | 91 | 255 | 2.6 | 8.7 | 0.00 | 0.00 | 0.00 | 100 | 1014.6 |
| 20260506180312 | 91 | 285 | 1.7 | 5.2 | 0.00 | 0.00 | 0.00 | 100 | 1014.6 |
| 20260506175812 | 91 | 250 | 3.5 | 6.1 | 0.00 | 0.00 | 0.00 | 100 | 1014.6 |
| 20260506175312 | 91 | 236 | 0.9 | 6.1 | 0.00 | 0.00 | 0.00 | 100 | 1014.7 |
| 20260506174812 | 91 | 217 | 2.6 | 6.1 | 0.00 | 0.00 | 0.00 | 100 | 1014.7 |
| 20260506174312 | 91 | 289 | 3.5 | 7.0 | 0.00 | 0.00 | 0.00 | 100 | 1014.7 |
| 20260506173812 | 90 | 312 | 0.9 | 7.8 | 0.00 | 0.00 | 0.00 | 100 | 1014.7 |
| 20260506173312 | 91 | 309 | 1.7 | 5.2 | 0.00 | 0.00 | 0.00 | 100 | 1014.7 |
| 20260506172812 | 91 | 201 | 2.6 | 4.3 | 0.00 | 0.00 | 0.00 | 100 | 1014.8 |
| 20260506172312 | 91 | 125 | 0.9 | 5.2 | 0.00 | 0.00 | 0.00 | 100 | 1014.8 |
| 20260506171812 | 90 | 212 | 1.7 | 7.8 | 0.00 | 0.00 | 0.00 | 100 | 1014.9 |
| 20260506171312 | 90 | 261 | 1.7 | 7.0 | 0.00 | 0.00 | 0.00 | 100 | 1015.0 |
| 20260506170812 | 91 | 270 | 4.3 | 4.3 | 0.00 | 0.00 | 0.00 | 100 | 1015.1 |
| 20260506170312 | 90 | 184 | 1.7 | 6.1 | 0.00 | 0.00 | 0.00 | 100 | 1015.1 |
| 20260506165812 | 90 | 274 | 2.6 | 6.1 | 0.00 | 0.00 | 0.00 | 100 | 1015.2 |
| 20260506165312 | 90 | 181 | 1.7 | 6.1 | 0.00 | 0.00 | 0.00 | 100 | 1015.2 |
| 20260506164812 | 90 | 254 | 3.5 | 7.8 | 0.00 | 0.00 | 0.00 | 100 | 1015.2 |
| 20260506164312 | 90 | 261 | 0.9 | 3.5 | 0.00 | 0.00 | 0.00 | 100 | 1015.2 |
| 20260506163812 | 90 | 312 | 2.6 | 6.1 | 0.00 | 0.00 | 0.00 | 100 | 1015.1 |
| 20260506163312 | 90 | 247 | 0.0 | 4.3 | 0.00 | 0.00 | 0.00 | 100 | 1015.3 |
| 20260506162812 | 90 | 295 | 3.5 | 6.1 | 0.00 | 0.00 | 0.00 | 100 | 1015.3 |
| 20260506162312 | 89 | 164 | 1.7 | 4.3 | 0.00 | 0.00 | 0.00 | 100 | 1015.4 |
| 20260506161812 | 89 | 279 | 1.7 | 4.3 | 0.00 | 0.00 | 0.00 | 100 | 1015.3 |
| 20260506161312 | 89 | 272 | 0.9 | 5.2 | 0.00 | 0.00 | 0.00 | 100 | 1015.4 |
| 20260506160812 | 90 | 208 | 0.0 | 5.2 | 0.00 | 0.00 | 0.00 | 100 | 1015.4 |
| 20260506160312 | 90 | 247 | 3.5 | 5.2 | 0.00 | 0.00 | 0.00 | 100 | 1015.4 |
| 20260506155812 | 90 | 240 | 0.9 | 6.1 | 0.00 | 0.00 | 0.00 | 100 | 1015.5 |
| 20260506155312 | 90 | 234 | 2.6 | 7.8 | 0.00 | 0.00 | 0.00 | 100 | 1015.3 |
| 20260506154812 | 90 | 172 | 5.2 | 9.6 | 0.00 | 0.00 | 0.00 | 100 | 1015.3 |
| 20260506154312 | 89 | 233 | 0.9 | 7.8 | 0.00 | 0.00 | 0.00 | 100 | 1015.2 |
| 20260506153812 | 89 | 140 | 0.9 | 8.7 | 0.00 | 0.00 | 0.00 | 100 | 1015.0 |
| 20260506153313 | 89 | 205 | 3.5 | 7.8 | 0.00 | 0.00 | 0.00 | 100 | 1015.2 |
| 20260506152813 | 88 | 157 | 1.7 | 6.1 | 0.00 | 0.00 | 0.00 | 100 | 1015.2 |
| 20260506152313 | 88 | 178 | 4.3 | 7.0 | 0.00 | 0.00 | 0.00 | 100 | 1015.3 |
| 20260506151813 | 88 | 205 | 0.9 | 4.3 | 0.00 | 0.00 | 0.00 | 100 | 1015.2 |
| 20260506151313 | 87 | 149 | 4.3 | 7.8 | 0.00 | 0.00 | 0.00 | 100 | 1015.1 |
| 20260506150813 | 87 | 206 | 2.6 | 6.1 | 0.00 | 0.00 | 0.00 | 100 | 1015.2 |
| 20260506150313 | 87 | 215 | 3.5 | 6.1 | 0.00 | 0.00 | 0.00 | 100 | 1015.1 |
| 20260506145813 | 87 | 230 | 3.5 | 7.0 | 0.00 | 0.00 | 0.00 | 100 | 1015.1 |
| 20260506145313 | 86 | 178 | 5.2 | 7.0 | 0.00 | 0.00 | 0.00 | 100 | 1015.2 |
| 20260506144813 | 86 | 222 | 3.5 | 8.7 | 0.00 | 0.00 | 0.00 | 100 | 1015.2 |
| 20260506144313 | 86 | 175 | 1.7 | 7.8 | 0.00 | 0.00 | 0.00 | 100 | 1015.0 |
| 20260506143813 | 86 | 222 | 3.5 | 7.0 | 0.00 | 0.00 | 0.00 | 100 | 1015.0 |
| 20260506143313 | 86 | 233 | 2.6 | 8.7 | 0.00 | 0.00 | 0.00 | 100 | 1015.1 |
| 20260506142813 | 86 | 196 | 1.7 | 7.0 | 0.00 | 0.00 | 0.00 | 100 | 1015.3 |
| 20260506142313 | 86 | 205 | 1.7 | 7.0 | 0.00 | 0.00 | 0.00 | 100 | 1015.2 |
| 20260506141813 | 85 | 244 | 2.6 | 9.6 | 0.00 | 0.00 | 0.00 | 100 | 1015.2 |
| 20260506141313 | 85 | 260 | 1.7 | 9.6 | 0.00 | 0.00 | 0.00 | 100 | 1015.2 |
| 20260506140813 | 85 | 184 | 3.5 | 8.7 | 0.00 | 0.00 | 0.00 | 100 | 1015.2 |
| 20260506140313 | 85 | 177 | 0.9 | 7.0 | 0.00 | 0.00 | 0.00 | 100 | 1015.2 |
| 20260506135813 | 84 | 206 | 4.3 | 8.7 | 0.00 | 0.00 | 0.00 | 100 | 1015.2 |
| 20260506135313 | 84 | 198 | 4.3 | 7.8 | 0.00 | 0.00 | 0.00 | 100 | 1015.1 |
| 20260506134813 | 84 | 216 | 1.7 | 9.6 | 0.00 | 0.00 | 0.00 | 100 | 1015.1 |
| 20260506134313 | 84 | 230 | 4.3 | 9.6 | 0.00 | 0.00 | 0.00 | 100 | 1015.1 |
| 20260506133813 | 84 | 203 | 1.7 | 8.7 | 0.00 | 0.00 | 0.00 | 100 | 1015.1 |
| 20260506133313 | 84 | 203 | 3.5 | 7.0 | 0.00 | 0.00 | 0.00 | 100 | 1015.0 |
| 20260506132813 | 84 | 217 | 0.0 | 7.0 | 0.00 | 0.00 | 0.00 | 100 | 1014.9 |
| 20260506132313 | 83 | 219 | 4.3 | 5.2 | 0.00 | 0.00 | 0.00 | 100 | 1015.0 |
| 20260506131813 | 83 | 185 | 0.9 | 6.1 | 0.00 | 0.00 | 0.00 | 100 | 1014.9 |
| 20260506131313 | 83 | 174 | 2.6 | 5.2 | 0.00 | 0.00 | 0.00 | 100 | 1014.9 |
| 20260506130813 | 82 | 202 | 2.6 | 8.7 | 0.00 | 0.00 | 0.00 | 100 | 1014.9 |
| 20260506130313 | 82 | 225 | 2.6 | 7.0 | 0.00 | 0.00 | 0.00 | 100 | 1014.9 |
| 20260506125813 | 82 | 222 | 0.9 | 7.0 | 0.00 | 0.00 | 0.00 | 100 | 1014.8 |
| 20260506125313 | 81 | 175 | 6.1 | 7.0 | 0.00 | 0.00 | 0.00 | 100 | 1015.0 |
| 20260506124813 | 81 | 202 | 0.9 | 3.5 | 0.00 | 0.00 | 0.00 | 100 | 1014.9 |
| 20260506124313 | 81 | 154 | 0.0 | 2.6 | 0.00 | 0.00 | 0.00 | 100 | 1014.8 |
| 20260506123813 | 81 | 168 | 1.7 | 3.5 | 0.00 | 0.00 | 0.00 | 100 | 1014.6 |
| 20260506123313 | 80 | 232 | 1.7 | 5.2 | 0.00 | 0.00 | 0.00 | 100 | 1014.9 |
| 20260506122813 | 80 | 203 | 0.0 | 3.5 | 0.00 | 0.00 | 0.00 | 100 | 1014.8 |
| 20260506122313 | 80 | 178 | 0.0 | 3.5 | 0.00 | 0.00 | 0.00 | 100 | 1014.7 |
| 20260506121813 | 79 | 194 | 1.7 | 2.6 | 0.00 | 0.00 | 0.00 | 100 | 1014.7 |
| 20260506121313 | 79 | 156 | 0.0 | 1.7 | 0.00 | 0.00 | 0.00 | 100 | 1014.7 |
| 20260506120849 | 79 | 195 | 0.0 | 2.6 | 0.00 | 0.00 | 0.00 | 100 | 1014.6 |
| 20260506120813 | 79 | 195 | 0.0 | 2.6 | 0.00 | 0.00 | 0.00 | 100 | 1014.6 |
| 20260506120313 | 78 | 220 | 0.0 | 2.6 | 0.00 | 0.00 | 0.00 | 100 | 1014.6 |
| 20260506115813 | 78 | 175 | 0.0 | 1.7 | 0.00 | 0.00 | 0.00 | 100 | 1014.5 |
| 20260506115313 | 78 | 202 | 0.9 | 0.9 | 0.00 | 0.00 | 0.00 | 100 | 1014.4 |
| 20260506114813 | 78 | 164 | 0.0 | 0.0 | 0.00 | 0.00 | 0.00 | 100 | 1014.3 |
| 20260506114313 | 77 | 164 | 0.0 | 0.0 | 0.00 | 0.00 | 0.00 | 100 | 1014.2 |
| 20260506113813 | 77 | 164 | 0.0 | 0.0 | 0.00 | 0.00 | 0.00 | 100 | 1014.2 |
| 20260506113313 | 77 | 164 | 0.0 | 0.0 | 0.00 | 0.00 | 0.00 | 100 | 1014.2 |
| 20260506112813 | 77 | 164 | 0.0 | 0.0 | 0.00 | 0.00 | 0.00 | 100 | 1014.1 |
| 20260506112313 | 77 | 164 | 0.0 | 0.0 | 0.00 | 0.00 | 0.00 | 100 | 1014.1 |
| 20260506111813 | 77 | 164 | 0.0 | 0.0 | 0.00 | 0.00 | 0.00 | 100 | 1014.1 |
| 20260506111313 | 77 | 164 | 0.0 | 0.0 | 0.00 | 0.00 | 0.00 | 100 | 1014.1 |
| 20260506110813 | 77 | 164 | 0.0 | 0.0 | 0.00 | 0.00 | 0.00 | 100 | 1014.0 |
| 20260506110313 | 77 | 164 | 0.0 | 0.0 | 0.00 | 0.00 | 0.00 | 100 | 1014.0 |
| 20260506105813 | 77 | 164 | 0.0 | 0.0 | 0.00 | 0.00 | 0.00 | 100 | 1013.9 |
| 20260506105313 | 77 | 164 | 0.0 | 0.0 | 0.00 | 0.00 | 0.00 | 100 | 1013.9 |
| 20260506104813 | 77 | 164 | 0.0 | 0.0 | 0.00 | 0.00 | 0.00 | 100 | 1013.8 |
| 20260506104313 | 77 | 164 | 0.0 | 0.0 | 0.00 | 0.00 | 0.00 | 100 | 1013.8 |
| 20260506103813 | 77 | 164 | 0.0 | 0.0 | 0.00 | 0.00 | 0.00 | 100 | 1013.7 |
| 20260506103313 | 77 | 164 | 0.0 | 0.0 | 0.00 | 0.00 | 0.00 | 100 | 1013.7 |
| 20260506102813 | 77 | 164 | 0.0 | 0.0 | 0.00 | 0.00 | 0.00 | 100 | 1013.7 |
| 20260506102313 | 77 | 164 | 0.0 | 0.0 | 0.00 | 0.00 | 0.00 | 100 | 1013.5 |
| 20260506101813 | 77 | 164 | 0.0 | 0.0 | 0.00 | 0.00 | 0.00 | 100 | 1013.7 |
| 20260506101313 | 77 | 164 | 0.0 | 0.0 | 0.00 | 0.00 | 0.00 | 100 | 1013.7 |
| 20260506100813 | 77 | 164 | 0.0 | 0.0 | 0.00 | 0.00 | 0.00 | 100 | 1013.7 |
| 20260506100313 | 77 | 164 | 0.0 | 0.0 | 0.00 | 0.00 | 0.00 | 100 | 1013.8 |
| 20260506095813 | 78 | 164 | 0.0 | 0.0 | 0.00 | 0.00 | 0.00 | 100 | 1013.8 |
| 20260506095313 | 78 | 164 | 0.0 | 0.0 | 0.00 | 0.00 | 0.00 | 100 | 1013.8 |
| 20260506094813 | 78 | 164 | 0.0 | 0.0 | 0.00 | 0.00 | 0.00 | 100 | 1013.8 |
| 20260506094313 | 78 | 164 | 0.0 | 0.0 | 0.00 | 0.00 | 0.00 | 100 | 1013.8 |
| 20260506093813 | 78 | 164 | 0.0 | 0.0 | 0.00 | 0.00 | 0.00 | 100 | 1013.6 |
| 20260506093313 | 78 | 164 | 0.0 | 0.0 | 0.00 | 0.00 | 0.00 | 100 | 1013.5 |
| 20260506092813 | 78 | 164 | 0.0 | 0.0 | 0.00 | 0.00 | 0.00 | 100 | 1013.4 |
| 20260506092313 | 78 | 164 | 0.0 | 0.0 | 0.00 | 0.00 | 0.00 | 100 | 1013.6 |
| 20260506091813 | 78 | 164 | 0.0 | 0.0 | 0.00 | 0.00 | 0.00 | 100 | 1013.5 |
| 20260506091313 | 78 | 164 | 0.0 | 0.0 | 0.00 | 0.00 | 0.00 | 100 | 1013.5 |
| 20260506090907 | 78 | 164 | 0.0 | 0.9 | 0.00 | 0.00 | 0.00 | 100 | 1013.5 |
| 20260506090813 | 78 | 164 | 0.0 | 0.9 | 0.00 | 0.00 | 0.00 | 100 | 1013.5 |
| 20260506090313 | 78 | 171 | 0.0 | 0.9 | 0.00 | 0.00 | 0.00 | 100 | 1013.5 |
| 20260506085813 | 78 | 170 | 0.9 | 0.9 | 0.00 | 0.00 | 0.00 | 100 | 1013.5 |
| 20260506085313 | 78 | 147 | 0.0 | 0.9 | 0.00 | 0.00 | 0.00 | 100 | 1013.4 |
| 20260506084813 | 78 | 171 | 0.0 | 2.6 | 0.00 | 0.00 | 0.00 | 100 | 1013.4 |
| 20260506084313 | 78 | 206 | 0.0 | 1.7 | 0.00 | 0.00 | 0.00 | 100 | 1013.3 |
| 20260506083813 | 78 | 215 | 0.9 | 0.9 | 0.00 | 0.00 | 0.00 | 100 | 1013.4 |
| 20260506083424 | 78 | 157 | 0.0 | 0.0 | 0.00 | 0.00 | 0.00 | 100 | 1013.4 |
| 20260506083313 | 78 | 192 | 0.0 | 2.6 | 0.00 | 0.00 | 0.00 | 100 | 1013.4 |
| 20260506082813 | 78 | 157 | 0.0 | 0.0 | 0.00 | 0.00 | 0.00 | 100 | 1013.4 |
| 20260506082353 | 78 | 157 | 0.0 | 0.0 | 0.00 | 0.00 | 0.00 | 100 | 1011.0 |
| 20260506082313 | 78 | 157 | 0.0 | 0.0 | 0.00 | 0.00 | 0.00 | 100 | 1011.0 |
| 20260506081813 | 78 | 157 | 0.0 | 0.0 | 0.00 | 0.00 | 0.00 | 100 | 1010.9 |
| 20260506081559 | 78 | 175 | 0.0 | 0.0 | 0.00 | 0.00 | 0.00 | 100 | 1011.4 |
| 20260506081313 | 78 | 157 | 0.0 | 0.0 | 0.00 | 0.00 | 0.00 | 100 | 1010.9 |
| 20260506080813 | 78 | 175 | 0.0 | 0.0 | 0.00 | 0.00 | 0.00 | 100 | 1011.4 |
| 20260506080313 | 78 | 175 | 0.0 | 0.0 | 0.00 | 0.00 | 0.00 | 100 | 1010.9 |
| 20260506073313 | 78 | 153 | 0.0 | 0.0 | 0.00 | 0.00 | 0.00 | 100 | 1013.5 |
| 20260506073136 | 78 | 188 | 0.0 | 0.0 | 0.00 | 0.00 | 0.00 | 100 | 1013.6 |
| 20260506072813 | 78 | 153 | 0.0 | 0.0 | 0.00 | 0.00 | 0.00 | 100 | 1013.7 |
| 20260506072313 | 78 | 153 | 0.0 | 0.0 | 0.00 | 0.00 | 0.00 | 100 | 1013.7 |
| 20260506071813 | 78 | 188 | 0.0 | 0.0 | 0.00 | 0.00 | 0.00 | 100 | 1013.6 |
| 20260506071313 | 78 | 188 | 0.0 | 0.0 | 0.00 | 0.00 | 0.00 | 100 | 1013.5 |
| 20260506070813 | 78 | 188 | 0.0 | 0.0 | 0.00 | 0.00 | 0.00 | 100 | 1013.7 |
| 20260506070313 | 78 | 188 | 0.0 | 0.0 | 0.00 | 0.00 | 0.00 | 100 | 1014.0 |
| 20260506062313 | 78 | 188 | 0.0 | 0.0 | 0.00 | 0.00 | 0.00 | 100 | 1014.1 |
| 20260506061813 | 78 | 188 | 0.0 | 0.0 | 0.00 | 0.00 | 0.00 | 100 | 1014.1 |
| 20260506061314 | 78 | 188 | 0.0 | 0.9 | 0.00 | 0.00 | 0.00 | 100 | 1014.2 |
| 20260506060813 | 78 | 122 | 0.0 | 0.0 | 0.00 | 0.00 | 0.00 | 100 | 1014.3 |
| 20260506060644 | 78 | 122 | 0.0 | 0.0 | 0.00 | 0.00 | 0.00 | 100 | 1014.3 |
| 20260506060313 | 78 | 122 | 0.0 | 0.0 | 0.00 | 0.00 | 0.00 | 100 | 1014.3 |
| 20260506051313 | 79 | 168 | 0.0 | 0.0 | 0.00 | 0.00 | 0.00 | 100 | 1014.6 |
| 20260506050813 | 79 | 168 | 0.0 | 0.0 | 0.00 | 0.00 | 0.00 | 100 | 1014.5 |
| 20260506050313 | 79 | 168 | 0.0 | 0.0 | 0.00 | 0.00 | 0.00 | 100 | 1014.5 |
| 20260506044813 | 79 | 168 | 0.0 | 0.0 | 0.00 | 0.00 | 0.00 | 100 | 1014.7 |
| 20260506044313 | 79 | 168 | 0.0 | 0.0 | 0.00 | 0.00 | 0.00 | 100 | 1014.7 |
| 20260506043813 | 79 | 168 | 0.0 | 0.0 | 0.00 | 0.00 | 0.00 | 100 | 1014.7 |
| 20260506043715 | 79 | 168 | 0.0 | 0.0 | 0.00 | 0.00 | 0.00 | 100 | 1014.7 |
| 20260506043313 | 79 | 168 | 0.0 | 0.0 | 0.00 | 0.00 | 0.00 | 100 | 1014.7 |
| 20260506042813 | 79 | 168 | 0.0 | 0.0 | 0.00 | 0.00 | 0.00 | 100 | 1014.7 |
| 20260506042551 | 79 | 168 | 0.0 | 0.0 | 0.00 | 0.00 | 0.00 | 100 | 1015.1 |
| 20260506042314 | 79 | 168 | 0.0 | 0.0 | 0.00 | 0.00 | 0.00 | 100 | 1014.9 |
| 20260506042148 | 79 | 168 | 0.0 | 0.0 | 0.00 | 0.00 | 0.00 | 100 | 1015.0 |
| 20260506041839 | 79 | 168 | 0.0 | 0.0 | 0.00 | 0.00 | 0.00 | 100 | 1015.0 |
| 20260506041814 | 79 | 168 | 0.0 | 0.0 | 0.00 | 0.00 | 0.00 | 100 | 1015.1 |